When you browse on this site, cookies collect data to enhance your experience and personalize the content and advertising you see.
Visit our Privacy Policy to learn more. By continuing to use the site, you agree to this use of cookies and data.
  • Em Portugal
  • Lista de países
  • Para 7 dias
  • Temperatura da água
  • Mapa do tempo
  • Widgets de tempo
  • user-avatar
    Iniciar Sessão

    Previsão horária em Kalyal

    Hoje, 23 Setembro, Segunda-feira

    Tempo Temperatura Precipitação Vento Pressão Humidade
    00:00 +2°C° 0 mm 2 m/s 600 mmHg 53%
    01:00 +3°C° 0 mm 1 m/s 600 mmHg 54%
    02:00 +3°C° 0 mm 1 m/s 600 mmHg 55%
    03:00 +2°C° 0 mm 2 m/s 600 mmHg 55%
    04:00 +3°C° 0 mm 1 m/s 600 mmHg 54%
    05:00 +3°C° 0 mm 1 m/s 600 mmHg 54%
    06:00 +4°C° 0 mm 1 m/s 600 mmHg 53%
    07:00 +6°C° 0 mm 1 m/s 601 mmHg 51%
    08:00 +7°C° 0 mm 2 m/s 602 mmHg 50%
    09:00 +9°C° 0 mm 2 m/s 603 mmHg 46%
    10:00 +10°C° 0 mm 2 m/s 603 mmHg 45%
    11:00 +12°C° 0 mm 2 m/s 603 mmHg 45%
    12:00 +11°C° 0 mm 3 m/s 603 mmHg 45%
    13:00 +11°C° 0 mm 3 m/s 603 mmHg 44%
    14:00 +13°C° 0 mm 2 m/s 602 mmHg 44%
    15:00 +13°C° 0 mm 2 m/s 602 mmHg 43%
    16:00 +9°C° 0 mm 2 m/s 601 mmHg 52%
    17:00 +8°C° 0 mm 1 m/s 600 mmHg 61%
    18:00 +5°C° 0 mm 1 m/s 599 mmHg 70%
    19:00 +5°C° 0 mm 1 m/s 599 mmHg 67%
    20:00 +5°C° 0 mm 1 m/s 600 mmHg 63%
    21:00 +5°C° 0 mm 1 m/s 600 mmHg 60%
    22:00 +5°C° 0 mm 1 m/s 600 mmHg 60%
    23:00 +4°C° 0 mm 1 m/s 600 mmHg 60%

    Amanhã, 24 Setembro, Terça-feira

    Tempo Temperatura Precipitação Vento Pressão Humidade
    00:00 +4°C° 0 mm 1 m/s 599 mmHg 60%
    01:00 +4°C° 0 mm 1 m/s 599 mmHg 61%
    02:00 +4°C° 0 mm 1 m/s 599 mmHg 62%
    03:00 +4°C° 0 mm 1 m/s 599 mmHg 62%
    04:00 +4°C° 0 mm 1 m/s 599 mmHg 63%
    05:00 +4°C° 0 mm 1 m/s 600 mmHg 63%
    06:00 +4°C° 0 mm 1 m/s 600 mmHg 63%
    07:00 +7°C° 0 mm 1 m/s 601 mmHg 60%
    08:00 +8°C° 0 mm 2 m/s 602 mmHg 56%
    09:00 +10°C° 0 mm 2 m/s 603 mmHg 53%
    10:00 +11°C° 0 mm 3 m/s 603 mmHg 52%
    11:00 +12°C° 0 mm 3 m/s 603 mmHg 52%
    12:00 +12°C° 0 mm 3 m/s 603 mmHg 51%
    13:00 +12°C° 0 mm 3 m/s 602 mmHg 52%
    14:00 +12°C° 0 mm 3 m/s 602 mmHg 53%
    15:00 +14°C° 0 mm 2 m/s 602 mmHg 54%
    16:00 +10°C° 0 mm 2 m/s 601 mmHg 62%
    17:00 +9°C° 0 mm 1 m/s 600 mmHg 70%
    18:00 +7°C° 0 mm 1 m/s 599 mmHg 79%
    19:00 +7°C° 0 mm 1 m/s 599 mmHg 76%
    20:00 +6°C° 0 mm 1 m/s 599 mmHg 73%
    21:00 +6°C° 0 mm 1 m/s 599 mmHg 71%
    22:00 +6°C° 0 mm 1 m/s 599 mmHg 71%
    23:00 +6°C° 0 mm 1 m/s 599 mmHg 72%

    Depois de amanhã, 25 Setembro, Quarta-feira

    Tempo Temperatura Precipitação Vento Pressão Humidade
    00:00 +6°C° 0 mm 1 m/s 598 mmHg 73%
    01:00 +6°C° 0 mm 1 m/s 598 mmHg 73%
    02:00 +6°C° 0 mm 1 m/s 598 mmHg 74%
    03:00 +6°C° 0 mm 1 m/s 598 mmHg 74%
    04:00 +6°C° 0 mm 1 m/s 598 mmHg 72%
    05:00 +6°C° 0 mm 1 m/s 598 mmHg 71%
    06:00 +6°C° 0 mm 1 m/s 598 mmHg 69%
    07:00 +8°C° 0 mm 2 m/s 600 mmHg 62%
    08:00 +10°C° 0 mm 2 m/s 601 mmHg 54%
    09:00 +14°C° 0 mm 2 m/s 602 mmHg 47%
    10:00 +13°C° 0 mm 3 m/s 602 mmHg 46%
    11:00 +14°C° 0 mm 3 m/s 603 mmHg 46%
    12:00 +16°C° 0 mm 3 m/s 603 mmHg 45%
    13:00 +16°C° 0 mm 3 m/s 603 mmHg 44%
    14:00 +16°C° 0 mm 3 m/s 603 mmHg 43%
    15:00 +16°C° 0 mm 3 m/s 603 mmHg 42%
    16:00 +13°C° 0 mm 3 m/s 602 mmHg 51%
    17:00 +12°C° 0 mm 2 m/s 601 mmHg 60%
    18:00 +8°C° 0 mm 2 m/s 600 mmHg 69%
    19:00 +9°C° 0 mm 1 m/s 600 mmHg 70%
    20:00 +9°C° 0 mm 1 m/s 600 mmHg 70%
    21:00 +8°C° 0 mm 1 m/s 601 mmHg 70%
    22:00 +8°C° 0 mm 1 m/s 600 mmHg 71%
    23:00 +8°C° 0 mm 1 m/s 600 mmHg 72%

    26 Setembro, Quinta-feira

    Tempo Temperatura Precipitação Vento Pressão Humidade
    00:00 +8°C° 0 mm 1 m/s 600 mmHg 72%
    01:00 +8°C° 0 mm 1 m/s 600 mmHg 73%
    02:00 +7°C° 0 mm 1 m/s 600 mmHg 74%
    03:00 +7°C° 0 mm 1 m/s 600 mmHg 74%
    04:00 +7°C° 0 mm 1 m/s 600 mmHg 75%
    05:00 +7°C° 0 mm 1 m/s 600 mmHg 75%
    06:00 +7°C° 0 mm 1 m/s 600 mmHg 75%
    07:00 +8°C° 0 mm 2 m/s 601 mmHg 71%
    08:00 +10°C° 0 mm 2 m/s 602 mmHg 66%
    09:00 +13°C° 0 mm 2 m/s 603 mmHg 61%
    10:00 +13°C° 0 mm 3 m/s 603 mmHg 58%
    11:00 +14°C° 0 mm 3 m/s 603 mmHg 55%
    12:00 +15°C° 0 mm 4 m/s 603 mmHg 52%
    13:00 +17°C° 0 mm 4 m/s 603 mmHg 50%
    14:00 +17°C° 0 mm 4 m/s 603 mmHg 49%
    15:00 +17°C° 0 mm 3 m/s 603 mmHg 47%
    16:00 +14°C° 0 mm 3 m/s 602 mmHg 54%
    17:00 +13°C° 0 mm 2 m/s 601 mmHg 62%
    18:00 +11°C° 0 mm 1 m/s 600 mmHg 69%
    19:00 +10°C° 0 mm 1 m/s 600 mmHg 70%
    20:00 +10°C° 0 mm 1 m/s 600 mmHg 70%
    21:00 +9°C° 0 mm 1 m/s 600 mmHg 70%
    22:00 +9°C° 0 mm 1 m/s 600 mmHg 73%
    23:00 +9°C° 0 mm 1 m/s 600 mmHg 76%

    27 Setembro, Sexta-feira

    Tempo Temperatura Precipitação Vento Pressão Humidade
    00:00 +8°C° 0 mm 2 m/s 600 mmHg 79%
    01:00 +8°C° 0 mm 1 m/s 600 mmHg 80%
    02:00 +8°C° 0 mm 1 m/s 600 mmHg 81%
    03:00 +8°C° 0 mm 1 m/s 599 mmHg 82%
    04:00 +8°C° 0 mm 1 m/s 599 mmHg 82%
    05:00 +8°C° 0 mm 1 m/s 599 mmHg 82%
    06:00 +8°C° 0 mm 1 m/s 599 mmHg 82%
    07:00 +10°C° 0 mm 1 m/s 600 mmHg 76%
    08:00 +12°C° 0 mm 2 m/s 601 mmHg 70%
    09:00 +14°C° 0 mm 2 m/s 602 mmHg 64%
    10:00 +14°C° 0 mm 3 m/s 603 mmHg 62%
    11:00 +16°C° 0 mm 3 m/s 603 mmHg 61%
    12:00 +17°C° 0 mm 3 m/s 603 mmHg 59%
    13:00 +17°C° 0 mm 3 m/s 603 mmHg 57%
    14:00 +17°C° 0 mm 3 m/s 602 mmHg 56%
    15:00 +17°C° 0 mm 3 m/s 602 mmHg 54%
    16:00 +15°C° 0 mm 2 m/s 601 mmHg 61%
    17:00 +13°C° 0 mm 2 m/s 601 mmHg 68%
    18:00 +12°C° 0 mm 1 m/s 600 mmHg 75%
    19:00 +11°C° 0 mm 1 m/s 600 mmHg 76%
    20:00 +11°C° 0 mm 1 m/s 600 mmHg 76%
    21:00 +10°C° 0 mm 1 m/s 600 mmHg 77%
    22:00 +10°C° 0 mm 1 m/s 600 mmHg 80%
    23:00 +10°C° 0 mm 1 m/s 599 mmHg 82%

    28 Setembro, Sábado

    Tempo Temperatura Precipitação Vento Pressão Humidade
    00:00 +9°C° 0 mm 1 m/s 599 mmHg 85%
    01:00 +9°C° 0 mm 1 m/s 599 mmHg 85%
    02:00 +9°C° 0 mm 1 m/s 599 mmHg 86%
    03:00 +8°C° 0 mm 1 m/s 598 mmHg 86%
    04:00 +8°C° 0 mm 1 m/s 598 mmHg 86%
    05:00 +8°C° 0 mm 1 m/s 598 mmHg 85%
    06:00 +8°C° 0 mm 1 m/s 598 mmHg 85%
    07:00 +9°C° 0 mm 2 m/s 599 mmHg 77%
    08:00 +12°C° 0 mm 3 m/s 599 mmHg 70%
    09:00 +14°C° 0 mm 3 m/s 600 mmHg 62%
    10:00 +13°C° 0.2 mm 4 m/s 600 mmHg 67%
    11:00 +13°C° 0.2 mm 4 m/s 600 mmHg 73%
    12:00 +12°C° 0.2 mm 4 m/s 600 mmHg 78%
    13:00 +12°C° 0.5 mm 3 m/s 600 mmHg 78%
    14:00 +11°C° 0.5 mm 3 m/s 600 mmHg 78%
    15:00 +12°C° 0.5 mm 2 m/s 600 mmHg 77%
    16:00 +11°C° 0 mm 1 m/s 600 mmHg 80%
    17:00 +10°C° 0 mm 1 m/s 599 mmHg 82%
    18:00 +8°C° 0 mm 1 m/s 599 mmHg 84%
    19:00 +8°C° 0 mm 1 m/s 599 mmHg 81%
    20:00 +8°C° 0 mm 1 m/s 600 mmHg 79%
    21:00 +7°C° 0 mm 2 m/s 600 mmHg 76%
    22:00 +6°C° 0 mm 2 m/s 600 mmHg 77%
    23:00 +7°C° 0 mm 1 m/s 600 mmHg 78%
    Mostrar mais